EW5716 Weather Reports


time (UTC)temp
C
wind
direction
speed
KPH
gust
KPH
rain 1hr
cm
rain 24hr
cm
rain mn
cm
humidity
%
barometer
mb
20260504081607 3 202 6.4 19.3 0.00 0.00 0.00 78 1007.0
20260504060120 3 253 0.0 8.0 0.00 0.00 0.00 59 1007.0
20260504050114 3 283 1.6 6.4 0.00 0.00 0.00 60 1007.3
20260504044600 2 286 0.0 3.2 0.00 0.00 0.00 62 1007.5
20260504043110 2 284 0.0 4.8 0.00 0.00 0.00 63 1007.6
20260504041558 2 331 0.0 4.8 0.00 0.00 0.00 62 1007.6
20260504041508 2 331 0.0 4.8 0.00 0.00 0.00 62 1007.6
20260504040106 2 333 0.0 8.0 0.00 0.00 0.00 63 1007.7
20260504034601 2 271 0.0 3.2 0.00 0.00 0.00 62 1007.6
20260504033103 2 272 0.0 6.4 0.00 0.00 0.00 62 1007.7
20260504031604 2 323 0.0 4.8 0.00 0.00 0.00 63 1007.9
20260504030100 2 323 0.0 1.6 0.00 0.00 0.00 62 1007.7
20260504024601 2 323 0.0 3.2 0.00 0.00 0.00 62 1007.8
20260504023059 2 323 1.6 4.8 0.00 0.00 0.00 63 1007.8
20260504021608 2 324 0.0 4.8 0.00 0.00 0.00 64 1007.9
20260504020059 2 347 0.0 4.8 0.00 0.00 0.00 64 1007.8
20260504014603 2 347 0.0 1.6 0.00 0.00 0.00 64 1007.9
20260504013113 2 350 0.0 0.0 0.00 0.00 0.00 65 1007.9
20260504011532 2 350 0.0 0.0 0.00 0.00 0.00 66 1007.7
20260504010115 2 350 0.0 3.2 0.00 0.00 0.00 64 1007.5
20260504004559 3 350 0.0 3.2 0.00 0.00 0.00 64 1007.4
20260504003059 3 350 0.0 0.0 0.00 0.00 0.00 63 1007.3
20260504001603 3 350 0.0 0.0 0.00 0.00 0.00 62 1007.3
20260503234559 4 350 0.0 1.6 0.00 0.00 0.00 62 1007.1
20260503233103 5 345 0.0 3.2 0.00 0.00 0.00 60 1006.9
20260503231559 5 345 0.0 6.4 0.00 0.00 0.00 57 1006.9
20260503230002 5 346 0.0 12.9 0.00 0.00 0.00 56 1006.8
20260503224601 5 296 1.6 9.7 0.00 0.03 0.00 57 1006.8
20260503223059 5 336 1.6 12.9 0.00 0.03 0.00 57 1006.8
20260503221500 6 340 1.6 8.0 0.00 0.03 0.00 56 1006.7
20260503220002 5 254 3.2 12.9 0.00 0.03 0.00 59 1006.7
20260503214600 5 325 3.2 12.9 0.00 0.03 0.00 57 1006.7
20260503213100 5 340 0.0 12.9 0.00 0.03 0.00 58 1006.7
20260503213001 5 340 3.2 12.9 0.00 0.03 0.00 57 1006.7
20260503211601 5 338 1.6 12.9 0.00 0.03 0.00 60 1006.7
20260503210101 5 323 0.0 16.1 0.00 0.03 0.00 60 1006.7
20260503210005 5 323 1.6 16.1 0.00 0.03 0.00 61 1006.7
20260503204610 5 261 8.0 24.1 0.00 0.03 0.00 57 1006.7
20260503204500 5 288 6.4 24.1 0.00 0.03 0.00 57 1006.6
20260503203107 6 290 1.6 12.9 0.00 0.03 0.00 58 1006.4
20260503201600 6 338 4.8 17.7 0.00 0.03 0.00 57 1006.4
20260503200100 5 347 3.2 14.5 0.00 0.03 0.00 57 1006.7
20260503200002 5 347 3.2 14.5 0.00 0.03 0.00 58 1006.6
20260503194628 5 198 6.4 16.1 0.00 0.03 0.00 57 1006.7
20260503193002 5 308 1.6 12.9 0.00 0.03 0.00 56 1006.8
20260503191604 6 335 4.8 16.1 0.00 0.03 0.00 56 1006.7
20260503190010 6 320 3.2 12.9 0.00 0.03 0.00 57 1006.7
20260503184601 5 290 3.2 16.1 0.00 0.03 0.00 59 1006.8
20260503183107 5 5 6.4 20.9 0.00 0.03 0.00 56 1006.8
20260503181600 5 339 1.6 20.9 0.00 0.03 0.00 60 1006.8
20260503180108 5 344 4.8 16.1 0.00 0.03 0.00 59 1006.9
20260503180004 5 341 3.2 19.3 0.00 0.03 0.00 59 1006.8
20260503174600 6 5 6.4 17.7 0.00 0.03 0.00 63 1006.9
20260503173203 5 341 4.8 14.5 0.00 0.03 0.00 59 1006.9
20260503171601 5 245 4.8 17.7 0.00 0.03 0.00 61 1007.0